Location: Beau Repaire
(50.6144°N, 4.0551°E)
Time: 04:21:24
(UTC+00:00)

Cosmos 2151 - Pass Details

Date: 15 May 2026
Orbit: 556 x 575 km, 82.5° (Epoch: 6 June)

Event Time Altitude Azimuth Distance (km) Brightness Sun altitude
Rises 20:49:08 0° 348° (NNW) 2,775 7.6 -10.9°
Reaches altitude 10° 20:51:20 10° 347° (NNW) 1,870 6.6 -11.1°
Maximum altitude 20:55:26 76° 263° (W) 584 3.0 -11.5°
Enters shadow 20:59:09 12° 177° (S) 1,706 4.8 -11.9°
